Aérodrome :
LOGIN :

S'inscrire | Disclaimer

   EN    FR    IT 

 










Légende :    VFR   VFR Marginal   IFR   IFR Intensif   IFR Très Intensif
Visi : 
Plafond : 
>= 8 km
>= 3000ft
5 à 8 km
1000 à 3000 ft
1500m à 5 km
500 à 1000 ft
800 à 1500m
200 à 500 ft
< 800m
< 200 ft
Symboles :   Orages  Brouillard  Fortes neiges  Fortes précipitations  Vent > 20 kt
SIGMETs :   Divers  Orages  Givrage  Turbulence  Onde Orograph.  Cendres Volcan.







- Altitude de l'aérodrome : 794 ft


LKCV - Čáslav Air Base

DERNIER METAR :
  • 221600Z 08017KT CAVOK 17/02 Q1012 NOSIG RMK BLU BLU

METARs EXPIRÉS :
  • 221500Z 07012KT CAVOK 17/02 Q1013 NOSIG RMK BLU BLU
  • 221400Z 05012KT CAVOK 15/02 Q1013 NOSIG RMK BLU BLU

TAF TAF LKCV
Valide du 22 à 12h jusqu'au 23 à 12h UTC


221100Z 2212/2312 06012KT CAVOK
TEMPO 2212/2222 08015G25KT
BECMG 2301/2303 14012KT
TEMPO 2302/2312 14015G25KT
TEMPO 2308/2312 15020G30KT
Pas de NOTAMs connus pour ce terrain.



MET'MAP, la Météo Aéronautique d'un coup d'oeil ! - Copyright ORBIFLY Décembre 2007 - Disclaimer

ORBIFLY MET'MAP TEAM :

Programmation & Développement : Alexandra Zaïnal
Conception & Développement : Baudouin d'Aumeries
Co-Programmation & Développement : Marc-Olivier Méhu
Soutien technique & logistique : Manuel Goepfert

Contact : metmap@orbifly.com




SOURCES & CREDITS :

   NOAA